IOR-W (EGNOS/PRN 126)

Last updated on Jan. 23, 2021, 7:31 a.m. UTC

1 28899U 05044A   21022.86163641  .00000021  00000-0  00000-0 0  9994
2 28899   3.1491  32.1567 0002921 271.6140 192.7075  1.00272480 55752
UTC
Height (km)
Latitude
Longitude
Inclination
Orbital Period
UTC large
Height (km)
Speed (km/s)
/
Latitude / Longitude
Inclination (degrees)
Orbital Period (minutes)
Azimuth
Elevation
Range (km)
Doppler Factor
iOS Compass Heading
iOS Angle

Next 30 passes for location: Hong Kong

Rise time Rise Azimuth (degrees) Set time Set Azimuth (degrees) Duration Max altitude (degrees)

No matching passes for this satellites